Regional Weather Roundup
Issued by NWS

Home | Current Version | Previous Version | Graphics & Text | Print | Product List | Glossary On
Versions: 1 2 3 4 5 6 7 8 9 10 11 12 13 14 15 16 17 18 19 20 21 22 23 24 25 26 27 28 29 30 31 32 33 34 35 36 37 38 39 40 41 42 43 44 45 46 47 48 49 50
000
ASUS43 KLOT 301200
RWRIL

ILLINOIS REGIONAL WEATHER ROUNDUP
NATIONAL WEATHER SERVICE CHICAGO/ROMEOVILLE IL
700 AM CDT WED JUL 30 2014

NOTE: "FAIR" INDICATES FEW OR NO CLOUDS BELOW 12,000 FEET WITH NO
SIGNIFICANT WEATHER AND/OR OBSTRUCTIONS TO VISIBILITY.

* THESE STATIONS ARE NOT UNDER NWS QUALITY CONTROL. THEY ALSO MAY NOT
  REPORT WEATHER SUCH AS PRECIPITATION OR FOG.

ILZ001-002-007-009-015-016-024-301300-
NORTHWEST ILLINOIS

CITY           SKY/WX    TMP DP  RH WIND       PRES   REMARKS
MOLINE         SUNNY     58  55  90 CALM      30.06R
6HR MIN TEMP:  55; 6HR MAX TEMP:  63;

STERLING*      SUNNY     61  55  82 W5        30.06R
SAVANNA*       SUNNY     59  57  93 CALM      30.05S FOG
$$

ILZ003-004-008-010-011-017-018-301300-
NORTH CENTRAL ILLINOIS

CITY           SKY/WX    TMP DP  RH WIND       PRES   REMARKS
ROCKFORD       MOSUNNY   60  56  86 W3        30.06S
6HR MIN TEMP:  57; 6HR MAX TEMP:  62;

FREEPORT*      SUNNY     59  57  94 W3        30.07S
$$

ILZ005-006-012>014-019>023-301300-
NORTHEAST ILLINOIS

CITY           SKY/WX    TMP DP  RH WIND       PRES   REMARKS
CHICAGO-OHARE  PTSUNNY   63  54  72 W7        30.02S
6HR MIN TEMP:  59; 6HR MAX TEMP:  63;

CHICAGO-MIDWAY PTSUNNY   65  57  75 W3        30.02S
6HR MIN TEMP:  61; 6HR MAX TEMP:  65;

AURORA         CLOUDY    60  56  86 CALM      30.04R FOG
6HR MIN TEMP:  56; 6HR MAX TEMP:  60;

LANSING*       PTSUNNY   60  56  88 CALM      30.03S
WAUKEGAN       CLOUDY    59  57  93 CALM      30.02R
6HR MIN TEMP:  57; 6HR MAX TEMP:  60;

DUPAGE AIRPORT CLOUDY    62  56  80 W7        30.03S
6HR MIN TEMP:  58; 6HR MAX TEMP:  62;

WHEELING       CLOUDY    63  58  83 N3        30.04R
6HR MIN TEMP:  59; 6HR MAX TEMP:  63;

NORTHERLY ISL    N/A     64  54  69 W7          N/A
$$

LMZ740>746-301300-
SOUTHERN LAKE MICHIGAN

STATION/POSITION SKY/WX   TEMP    WIND        PRES    VSBY  WAVE
                          AIR SEA DIR/SP/G                  HT/PER
                          (F)     (DEG/KT/KT) (MB)    (MI)  (FT/S)
SOUTHERN BUOY              61 60  270/  6/  8 1016.1R         1
WAUKEGAN HARBOR            62     300/  4/  6   N/A
HARRISON CRIB              64     300/  7/  8   N/A
BURNHAM HARBOR             64     250/  6/ 11   N/A
CALUMET HARBOR             62     230/  3/  4 1015.7R
MICHIGAN CITY              65     250/  8/  9   N/A
MICHIGAN CITY 6N           65 68  310/  8/ 10   N/A           1/ 4
ST. JOSEPH                 64 67  260/  8/ 12   N/A           1
$$

ILZ025>027-034>036-040-047-049-050-058-095>099-301300-
WEST-CENTRAL ILLINOIS

CITY           SKY/WX    TMP DP  RH WIND       PRES   REMARKS
QUINCY         CLEAR     58  56  93 SW3       30.08S FOG
GALESBURG*     SUNNY     57  56  97 CALM      30.06S
MACOMB*        SUNNY     56  56  99 W3        30.09S
$$

ILZ028>032-037-038-041>044-048-051>054-059>061-301300-
CENTRAL ILLINOIS

CITY           SKY/WX    TMP DP  RH WIND       PRES   REMARKS
PONTIAC        SUNNY     59  57  94 CALM        N/A
DECATUR        SUNNY     62  58  86 SW6       30.07S
PEORIA         SUNNY     62  56  80 CALM      30.06R
6HR MIN TEMP:  60; 6HR MAX TEMP:  66;

SPRINGFIELD    SUNNY     59  56  89 SW5       30.08R
6HR MIN TEMP:  57; 6HR MAX TEMP:  62;

TAYLORVILLE    NOT AVBL
$$

ILZ033-039-045-046-055>057-062-063-301300-
EAST-CENTRAL ILLINOIS

CITY           SKY/WX    TMP DP  RH WIND       PRES   REMARKS
CHAMPAIGN      SUNNY     58  57  97 SW6       30.06S
MATTOON        SUNNY     61  55  81 W6        30.07R
$$

ILZ079-100>102-301300-
SOUTHWEST ILLINOIS

CITY           SKY/WX    TMP DP  RH WIND       PRES   REMARKS
ALTON          MOSUNNY   55  55 100 CALM      30.09R
CAHOKIA*       MOSUNNY   61  59  93 CALM      30.08S
SPARTA*        MOSUNNY   61  55  82 CALM      30.10S
$$

ILZ064>066-069>071-074>076-080>082-084>086-088>090-092>094-301300-
SOUTH-CENTRAL ILLINOIS

CITY           SKY/WX    TMP DP  RH WIND       PRES   REMARKS
CARBONDALE     MOSUNNY   60  58  92 CALM      30.10S
6HR MIN TEMP:  55; 6HR MAX TEMP:  60;

MT. VERNON     SUNNY     55  52  88 CALM      30.10S
SALEM*         SUNNY    N/A N/A N/A CALM      30.09S HAZE
$$

ILZ067-068-072-073-078-083-087-091-301300-
SOUTHEAST ILLINOIS

CITY           SKY/WX    TMP DP  RH WIND       PRES   REMARKS
LAWRENCEVILLE  SUNNY     58  56  93 CALM      30.09R FOG
HARRISBURG*    SUNNY     57  57 100 CALM      30.11S FOG
ROBINSON*      SUNNY     59  58  96 CALM      30.09S
$$

ABBREVIATIONS USED IN REMARKS
   TC - TEMPERATURE IN CELSIUS
  WCI - WIND CHILL INDEX
   HX - HEAT INDEX
  VSB - VISIBILITY
$$



USA.gov is the U.S. government's official web portal to all federal, state and local government web resources and services.